Moffett NAS, CA

5:37 AM PST on December 11, 2017 (GMT -0800)
Moffett Federal Air Field

Weather History for KNUQ - June, 2013

Change the Weather History Date:

Sunday, June 23, 2013

  Actual Average Record
Temperature  
Mean Temperature 67 °F 67 °F  
Max Temperature 74 °F 77 °F 103 °F (1976)
Min Temperature 59 °F 57 °F 50 °F (1975)
Degree Days  
Heating Degree Days 0    
Month to date heating degree days 11  
Since 1 June heating degree days 11  
Since 1 July heating degree days 2097  
Cooling Degree Days 2    
Month to date cooling degree days 38  
Year to date cooling degree days 112  
Since 1 June cooling degree days 38  
Growing Degree Days 16 (Base 50)    
Moisture  
Dew Point 56 °F    
Average Humidity 71    
Maximum Humidity 84    
Minimum Humidity 57    
Precipitation  
Precipitation T in 0.00 in 0.00 in (2017)
Month to date precipitation T 0.09  
Year to date precipitation 1.79 9.62  
Since 1 July precipitation 9.56  
Sea Level Pressure  
Sea Level Pressure 29.88 in    
Wind  
Wind Speed 5 mph (North)    
Max Wind Speed 15 mph    
Max Gust Speed 16 mph    
Visibility 10 miles    
Events      
T = Trace of Precipitation, MM = Missing Value Source: NWS Daily Summary

Daily Weather History Graph

Daily Weather History Graph

Search for Another Location

Airport or City:

Trip Planner

Search our weather history database for the weather conditions in past years. The results will help you decide how hot, cold, wet, or windy it might be!

Date:

Astronomy

Jun. 23, 2013 Rise Set
Actual Time 5:48 AM PDT 8:32 PM PDT
Civil Twilight 5:17 AM PDT 9:03 PM PDT
Nautical Twilight 4:38 AM PDT 9:42 PM PDT
Astronomical Twilight 3:54 AM PDT 10:26 PM PDT
Moon 8:51 PM PDT (6/23) 6:10 AM PDT (6/23)
Length of Visible Light 15h 46m
Length of Day
14h 44m
Full, 100% of the Moon is Illuminated
Jun 23
Full
Jun 29
Last Quarter
Jul 8
New
Jul 15
First Quarter
Jul 22
Full

Hourly Weather History & Observations

Time (PDT) Temp. Dew Point Humidity Pressure Visibility Wind Dir Wind Speed Gust Speed Precip Events Conditions
12:56 AM 61.0 °F 53.1 °F 75% 29.92 in 10.0 mi Calm Calm - N/A   Clear
1:56 AM 60.1 °F 55.0 °F 83% 29.91 in 10.0 mi ESE 3.5 mph - N/A   Partly Cloudy
2:30 AM 59.0 °F 53.6 °F 82% 29.91 in 10.0 mi Calm Calm - N/A   Mostly Cloudy
2:56 AM 60.1 °F 55.0 °F 83% 29.91 in 10.0 mi Calm Calm - N/A   Overcast
3:03 AM 60.8 °F 55.4 °F 82% 29.90 in 10.0 mi Calm Calm - N/A   Overcast
3:56 AM 61.0 °F 55.0 °F 81% 29.91 in 10.0 mi SSE 3.5 mph - N/A   Overcast
4:56 AM 61.0 °F 55.0 °F 81% 29.91 in 10.0 mi SW 3.5 mph - N/A   Overcast
5:56 AM 61.0 °F 54.0 °F 78% 29.91 in 10.0 mi SSW 3.5 mph - N/A   Overcast
6:18 AM 60.8 °F 53.6 °F 77% 29.90 in 10.0 mi Calm Calm - N/A   Scattered Clouds
6:56 AM 61.0 °F 54.0 °F 78% 29.92 in 10.0 mi West 3.5 mph - N/A   Mostly Cloudy
7:56 AM 63.0 °F 54.0 °F 72% 29.91 in 10.0 mi Calm Calm - N/A   Scattered Clouds
8:56 AM 64.0 °F 54.0 °F 70% 29.91 in 10.0 mi ESE 3.5 mph - N/A   Clear
9:56 AM 66.0 °F 55.0 °F 68% 29.91 in 10.0 mi SSE 3.5 mph - N/A   Mostly Cloudy
10:32 AM 68.0 °F 55.4 °F 64% 29.90 in 10.0 mi Calm Calm - N/A   Scattered Clouds
10:56 AM 68.0 °F 55.0 °F 63% 29.90 in 10.0 mi Variable 4.6 mph - N/A   Clear
11:56 AM 69.1 °F 55.9 °F 63% 29.91 in 10.0 mi North 5.8 mph - N/A   Clear
12:56 PM 69.1 °F 57.0 °F 65% 29.91 in 10.0 mi SW 8.1 mph - N/A   Partly Cloudy
1:56 PM 72.0 °F 55.9 °F 57% 29.88 in 10.0 mi Variable 4.6 mph - N/A   Partly Cloudy
2:56 PM 71.1 °F 57.9 °F 63% 29.88 in 10.0 mi NNW 9.2 mph - N/A   Mostly Cloudy
3:56 PM 71.1 °F 59.0 °F 66% 29.87 in 10.0 mi NNW 6.9 mph - N/A   Overcast
4:56 PM 72.0 °F 59.0 °F 64% 29.85 in 10.0 mi WNW 8.1 mph - N/A   Mostly Cloudy
5:56 PM 71.1 °F 59.0 °F 66% 29.85 in 10.0 mi NW 6.9 mph - N/A   Overcast
6:56 PM 69.1 °F 59.0 °F 70% 29.85 in 10.0 mi NNW 11.5 mph - 0.00 in   Overcast
7:56 PM 66.9 °F 59.0 °F 76% 29.85 in 10.0 mi North 12.7 mph - 0.00 in   Overcast
8:03 PM 66.2 °F 57.2 °F 73% 29.84 in 10.0 mi North 13.8 mph - N/A   Overcast
8:13 PM 66.2 °F 59.0 °F 78% 29.84 in 10.0 mi North 11.5 mph - N/A   Overcast
8:56 PM 64.9 °F 59.0 °F 81% 29.84 in 10.0 mi NNE 8.1 mph - N/A   Mostly Cloudy
9:56 PM 64.9 °F 59.0 °F 81% 29.86 in 10.0 mi North 6.9 mph - N/A   Mostly Cloudy
10:56 PM 64.9 °F 59.0 °F 81% 29.85 in 10.0 mi NNE 4.6 mph - N/A   Overcast
11:46 PM 64.4 °F 57.2 °F 77% 29.83 in 10.0 mi NE 4.6 mph - N/A   Scattered Clouds
11:56 PM 64.0 °F 59.0 °F 84% 29.84 in 10.0 mi Calm Calm - N/A   Mostly Cloudy